Gainesville, FL

10:12 PM EST on December 09, 2019 (GMT -0500)
Gainesville Regional

Weather History for KGNV - October, 2019

Change the Weather History Date:

Tuesday, October 22, 2019

  Actual Average Record
Temperature  
Mean Temperature 79 °F 69 °F  
Max Temperature 89 °F 80 °F 90 °F (1919)
Min Temperature 69 °F 58 °F 38 °F (1989)
Degree Days  
Heating Degree Days 0 1  
Month to date heating degree days 0 10  
Since 1 July heating degree days 0 10  
Cooling Degree Days 14 5  
Month to date cooling degree days 237 171  
Year to date cooling degree days 3253 2511  
Growing Degree Days 30 (Base 50)    
Moisture  
Dew Point 73 °F    
Average Humidity 82    
Maximum Humidity 100    
Minimum Humidity 63    
Precipitation  
Precipitation 0.27 in 0.08 in 1.65 in (1941)
Month to date precipitation 3.48 2.28  
Year to date precipitation 41.72 42.27  
Snow  
Snow 0.00 in 0.00 in 0.00 in ()
Month to date snowfall 0.0 0.0  
Since 1 July snowfall 0.0 0.0  
Since 1 September snowfall 0.0 0.0  
Snow Depth 0.00 in    
Sea Level Pressure  
Sea Level Pressure 29.99 in    
Wind  
Wind Speed 7 mph (SW)    
Max Wind Speed 26 mph    
Max Gust Speed 33 mph    
Visibility 7 miles    
Events Fog , Rain , Thunderstorm    
T = Trace of Precipitation, MM = Missing Value Source: NWS Daily Summary

Daily Weather History Graph

Daily Weather History Graph

Search for Another Location

Airport or City:

Astronomy

Oct. 22, 2019 Rise Set
Actual Time 7:35 AM EDT 6:51 PM EDT
Civil Twilight 7:10 AM EDT 7:15 PM EDT
Nautical Twilight 6:43 AM EDT 7:43 PM EDT
Astronomical Twilight 6:15 AM EDT 8:11 PM EDT
Moon 1:20 AM EDT (10/22) 3:25 PM EDT (10/22)
Length of Visible Light 12h 04m
Length of Day
11h 16m
Last Quarter, 37% of the Moon is Illuminated
Oct 22
Last Quarter
Oct 27
New
Nov 4
First Quarter
Nov 12
Full
Nov 19
Last Quarter

Hourly Weather History & Observations

Time (EDT) Temp. Heat Index Dew Point Humidity Pressure Visibility Wind Dir Wind Speed Gust Speed Precip Events Conditions
12:11 AM 73.9 °F - 73.0 °F 97% 30.02 in 10.0 mi SSW 3.5 mph - N/A   Overcast
12:53 AM 75.0 °F - 73.0 °F 94% 30.01 in 10.0 mi SSW 3.5 mph - N/A   Overcast
1:02 AM 75.0 °F - 73.0 °F 94% 30.02 in 10.0 mi Calm Calm - N/A   Overcast
1:53 AM 75.0 °F - 73.0 °F 94% 30.00 in 9.0 mi Calm Calm - N/A   Overcast
2:53 AM 75.9 °F - 73.9 °F 94% 29.99 in 6.0 mi SW 5.8 mph - N/A   Overcast
3:11 AM 75.0 °F - 73.9 °F 96% 29.99 in 2.0 mi SW 4.6 mph - N/A   Overcast
3:26 AM 75.0 °F - 73.9 °F 96% 29.99 in 3.0 mi SW 5.8 mph - N/A   Overcast
3:53 AM 75.0 °F - 73.9 °F 96% 29.99 in 8.0 mi SSW 5.8 mph - N/A   Mostly Cloudy
4:06 AM 75.0 °F - 73.9 °F 96% 29.99 in 9.0 mi SSW 5.8 mph - N/A   Scattered Clouds
4:53 AM 75.9 °F - 73.9 °F 94% 29.98 in 8.0 mi SSW 6.9 mph - N/A   Mostly Cloudy
5:53 AM 75.9 °F - 75.0 °F 97% 29.98 in 7.0 mi SSW 9.2 mph - N/A   Overcast
6:53 AM 77.0 °F - 75.9 °F 96% 29.99 in 7.0 mi SSW 8.1 mph - N/A   Overcast
7:16 AM 77.0 °F - 75.9 °F 96% 30.00 in 8.0 mi SSW 9.2 mph - N/A   Overcast
7:53 AM 77.0 °F - 75.9 °F 96% 29.99 in 6.0 mi South 8.1 mph - N/A   Mostly Cloudy
8:04 AM 77.0 °F - 75.9 °F 96% 30.00 in 6.0 mi South 6.9 mph - N/A   Mostly Cloudy
9:53 AM 81.0 °F 86.7 °F 75.0 °F 82% 30.01 in 10.0 mi SW 9.2 mph - N/A   Scattered Clouds
10:09 AM 80.1 °F 85.1 °F 75.0 °F 85% 30.01 in 10.0 mi SSW 10.4 mph - N/A   Mostly Cloudy
10:53 AM 82.9 °F 90.8 °F 75.9 °F 79% 30.00 in 10.0 mi SW 8.1 mph - N/A   Mostly Cloudy
11:32 AM 84.9 °F 93.3 °F 75.0 °F 72% 30.00 in 10.0 mi SW 10.4 mph 21.9 mph N/A   Scattered Clouds
11:53 AM 87.1 °F 95.4 °F 73.9 °F 65% 29.99 in 10.0 mi SW 12.7 mph 19.6 mph N/A   Partly Cloudy
12:53 PM 87.1 °F 94.5 °F 73.0 °F 63% 29.97 in 10.0 mi SSW 15.0 mph 21.9 mph N/A   Partly Cloudy
1:53 PM 84.9 °F 91.4 °F 73.0 °F 67% 29.94 in 10.0 mi WSW 12.7 mph 20.7 mph N/A   Scattered Clouds
2:19 PM 80.1 °F 83.8 °F 72.0 °F 76% 29.96 in 1.8 mi SW 16.1 mph 33.4 mph 0.01 in Rain Heavy Rain
2:26 PM 80.1 °F 84.2 °F 73.0 °F 79% 29.96 in 3.0 mi SSW 8.1 mph - 0.04 in Rain Light Rain
2:53 PM 82.9 °F 90.8 °F 75.9 °F 79% 29.94 in 10.0 mi SSW 16.1 mph 24.2 mph 0.04 in   Mostly Cloudy
3:01 PM 80.1 °F 84.5 °F 73.9 °F 81% 29.97 in 1.2 mi West 18.4 mph 26.5 mph 0.00 in Rain Light Rain
3:07 PM 77.0 °F - 71.1 °F 82% 29.97 in 0.8 mi WSW 17.3 mph 26.5 mph 0.09 in Rain Light Rain
3:16 PM 77.0 °F - 73.0 °F 88% 29.96 in 1.2 mi NW 6.9 mph - 0.18 in Rain Light Rain
3:19 PM 78.1 °F - 73.9 °F 87% 29.96 in 3.0 mi NW 11.5 mph 19.6 mph 0.18 in Rain Light Rain
3:35 PM 77.0 °F - 73.9 °F 90% 29.97 in 10.0 mi West 9.2 mph - 0.18 in Thunderstorm Thunderstorm
3:51 PM 77.0 °F - 73.4 °F 89% 29.98 in 2.0 mi WSW 8.1 mph - 0.21 in Rain , Thunderstorm Light Thunderstorms and Rain
3:53 PM 77.0 °F - 73.9 °F 90% 29.97 in 3.0 mi WSW 5.8 mph - 0.21 in Rain , Thunderstorm Light Rain
4:19 PM 77.0 °F - 73.9 °F 90% 29.96 in 6.0 mi Calm Calm - 0.01 in Rain Light Rain
4:53 PM 78.1 °F - 73.9 °F 87% 29.96 in 10.0 mi West 6.9 mph - 0.02 in   Mostly Cloudy
5:53 PM 79.0 °F - 73.9 °F 84% 29.96 in 10.0 mi West 6.9 mph - N/A   Scattered Clouds
6:53 PM 77.0 °F - 73.9 °F 90% 29.98 in 10.0 mi Calm Calm - N/A   Partly Cloudy
7:53 PM 75.0 °F - 73.9 °F 96% 29.99 in 10.0 mi Calm Calm - N/A   Mostly Cloudy
8:53 PM 73.9 °F - 73.0 °F 97% 30.01 in 4.0 mi Calm Calm - N/A   Clear
9:01 PM 73.0 °F - 72.0 °F 96% 30.02 in 1.8 mi Calm Calm - N/A   Clear
9:11 PM 73.9 °F - 72.0 °F 93% 30.02 in 7.0 mi Calm Calm - N/A Fog Shallow Fog
9:19 PM 73.0 °F - 72.0 °F 96% 30.02 in 7.0 mi Calm Calm - N/A Fog Shallow Fog
9:53 PM 73.9 °F - 73.0 °F 97% 30.02 in 10.0 mi WNW 8.1 mph - 0.00 in   Overcast
10:53 PM 73.0 °F - 64.0 °F 73% 30.05 in 10.0 mi NW 11.5 mph - N/A   Overcast
11:53 PM 70.0 °F - 59.0 °F 68% 30.06 in 10.0 mi NW 4.6 mph - N/A   Mostly Cloudy